TimeEST,TemperatureF,Dew PointF,Humidity,Sea Level PressureIn,VisibilityMPH,Wind Direction,Wind SpeedMPH,Gust SpeedMPH,PrecipitationIn,Events,Conditions,WindDirDegrees,DateUTC
12:44 AM,53.6,53.6,100,30.09,1.8,Calm,Calm,-,N/A,,Overcast,0,2013-01-16 05:44:00
1:02 AM,53.6,53.6,100,30.08,0.5,Calm,Calm,-,N/A,Fog,Fog,0,2013-01-16 06:02:00
1:54 AM,54.0,53.1,97,30.07,0.2,ESE,3.5,-,N/A,Fog,Fog,120,2013-01-16 06:54:00
2:54 AM,54.0,53.1,97,30.07,0.2,Calm,Calm,-,N/A,Fog,Fog,0,2013-01-16 07:54:00
3:54 AM,55.0,53.1,93,30.03,0.2,SSE,3.5,-,N/A,Fog,Fog,160,2013-01-16 08:54:00
4:54 AM,55.9,54.0,93,30.02,0.8,Calm,Calm,-,N/A,,Mist,0,2013-01-16 09:54:00
5:01 AM,57.2,55.4,94,30.02,1.0,South,4.6,-,N/A,,Mist,190,2013-01-16 10:01:00
5:07 AM,60.8,57.2,88,30.02,3.0,SSW,5.8,-,N/A,,Mostly Cloudy,200,2013-01-16 10:07:00
5:17 AM,60.8,59.0,94,30.02,10.0,SSW,5.8,-,N/A,,Scattered Clouds,200,2013-01-16 10:17:00
5:54 AM,61.0,60.1,97,30.02,10.0,South,6.9,-,N/A,,Clear,190,2013-01-16 10:54:00
6:54 AM,59.0,57.9,96,30.03,9.0,South,3.5,-,0.01,,Scattered Clouds,190,2013-01-16 11:54:00
7:54 AM,62.1,60.1,93,30.03,10.0,South,6.9,-,N/A,,Partly Cloudy,190,2013-01-16 12:54:00
8:54 AM,66.9,63.0,87,30.04,10.0,SSW,8.1,-,N/A,,Clear,200,2013-01-16 13:54:00
9:54 AM,70.0,64.9,84,30.05,10.0,SSW,10.4,-,N/A,,Mostly Cloudy,210,2013-01-16 14:54:00
10:54 AM,73.0,64.0,73,30.04,10.0,WSW,12.7,-,N/A,,Scattered Clouds,240,2013-01-16 15:54:00
11:54 AM,75.0,63.0,66,30.00,10.0,SW,13.8,23.0,N/A,,Scattered Clouds,230,2013-01-16 16:54:00
12:54 PM,75.0,63.0,66,29.98,10.0,WSW,9.2,19.6,N/A,,Overcast,250,2013-01-16 17:54:00
1:54 PM,78.1,62.1,58,29.96,10.0,WSW,8.1,-,N/A,,Overcast,240,2013-01-16 18:54:00
3:54 PM,75.9,61.0,60,29.97,10.0,West,5.8,-,N/A,,Mostly Cloudy,260,2013-01-16 20:54:00
4:54 PM,61.0,55.0,81,30.02,10.0,NNW,5.8,-,N/A,,Overcast,340,2013-01-16 21:54:00
5:54 PM,57.0,53.1,87,30.03,10.0,NNE,5.8,-,N/A,,Mostly Cloudy,20,2013-01-16 22:54:00
6:54 PM,55.0,52.0,89,30.04,10.0,Calm,Calm,-,N/A,,Clear,0,2013-01-16 23:54:00
7:54 PM,55.0,52.0,89,30.03,10.0,Calm,Calm,-,N/A,,Partly Cloudy,0,2013-01-17 00:54:00
8:54 PM,55.9,53.1,90,30.03,10.0,SSE,3.5,-,N/A,,Partly Cloudy,150,2013-01-17 01:54:00
9:54 PM,55.9,54.0,93,30.02,8.0,SSE,5.8,-,N/A,,Clear,150,2013-01-17 02:54:00
10:54 PM,54.0,52.0,93,30.01,6.0,South,3.5,-,N/A,,Clear,170,2013-01-17 03:54:00
11:41 PM,51.8,51.8,100,30.00,1.5,Calm,Calm,-,N/A,,Clear,0,2013-01-17 04:41:00
11:54 PM,52.0,51.1,97,30.00,1.8,NNW,3.5,-,N/A,,Clear,330,2013-01-17 04:54:00